Location: Unspecified
(41.1637°N, 24.2901°E)
Time: 05:22:44
(UTC+01:00)

ISS - Pass Details

Date: 13 February 2026
Orbit: 413 x 428 km, 51.6° (Epoch: 18 February)

Event Time Altitude Azimuth Distance (km) Brightness Sun altitude
Exits shadow 05:32:20 - 232° (SW) 1,854 -0.9 -9.6°
Reaches altitude 10° 05:33:14 10° 232° (SW) 1,483 -1.4 -9.5°
Maximum altitude 05:36:34 88° 152° (SSE) 418 -3.8 -8.8°
Drops below altitude 10° 05:39:54 10° 55° (NE) 1,486 -0.3 -8.2°
Sets 05:42:00 0° 55° (NE) 2,351 0.8 -7.8°
